Location: Acts Church of Fort Worth
(32.6786°N, 97.2668°W)
Time: 20:23:57
(UTC+00:00)

SL-8 Rocket - Pass Details

Date: 18 January 2026
Orbit: 955 x 990 km, 82.9° (Epoch: 10 February)

Event Time Altitude Azimuth Distance (km) Brightness Sun altitude
Rises 00:11:23 0° 352° (N) 3,654 6.9 -5.4°
Reaches altitude 10° 00:13:54 10° 351° (N) 2,701 6.2 -5.9°
Maximum altitude 00:20:03 77° 267° (W) 982 4.2 -7.1°
Drops below altitude 10° 00:26:10 10° 181° (S) 2,674 6.6 -8.3°
Sets 00:28:38 0° 180° (S) 3,616 7.2 -8.8°
